"Pseudo-MPEC" for 2010-050A = SM999CF = Chang'e 2 probe

Created Thu Sep 01 14:57:45 2011 using Find_Orb

Note that this is the pseudo-MPEC for the actual probe for the Chang'e 2 mission, showing its initial trajectory after leaving lunar orbit. Click here for a pseudo-MPEC for the probe as it is now (i.e., its orbit at the earth-moon L2 point). Also, you can click here for data on the booster for this mission, currently floating loosely around the earth/moon system.

You can get customized ephemerides for both objects from the Minor Planet Center's Distant Artificial Satellites Observation page; or you can copy and paste the astrometry into Find_Orb and do it yourself.

The lunicentric elements from right after this object left the Moon for L2 show the probe as having been launched from the lunar surface. I am increasingly confident that this just means the probe maneuvered after leaving lunar orbit. Most likely, its controllers gave it one good boost to put it into a lunar escape trajectory headed almost exactly to L2. Then, after tracking it for a while, they gave it a little tweak to put it on a more exact path to L2.

Astrometry:
2010-050A     C2011 06 27.33631 20 11 40.12 -18 43 16.1          18.0 V D0374G96
2010-050A     C2011 06 27.34450 20 11 40.59 -18 42 50.5          18.3 V D0374G96
2010-050A     C2011 06 27.36065 20 11 41.31 -18 41 56.9          17.5 V D0374G96
2010-050A     C2011 06 27.37192 20 11 41.78 -18 41 17.5          17.7 V D0374G96
2010-050A     C2011 06 27.38023 20 11 42.07 -18 40 47.3          17.9 V D0374G96
2010-050A     C2011 06 27.38853 20 11 42.36 -18 40 16.8          18.2 V D0374G96
2010-050A     C2011 06 27.39686 20 11 42.64 -18 39 44.0          18.1 V D0374G96
2010-050A    |C2011 06 27.44052 20 11 38.24 -18 36 35.2          17.8 R D0374H06
2010-050A    |C2011 06 27.44224 20 11 38.39 -18 36 26.5          18.1 R D0374H06
2010-050A    |C2011 06 27.44395 20 11 38.55 -18 36 18.2          17.8 R D0374H06
2010-050A    IC2011 06 27.61095 20 14 15.85 -18 02 55.7                 D0375D96
2010-050A    IC2011 06 27.66422 20 14 19.32 -18 00 14.5                 D0375D96
2010-050A    KC2011 06 27.96049 20 17 09.07 -18 07 05.7          18.3 V D0374595
2010-050A    KC2011 06 27.96502 20 17 09.75 -18 06 53.6          18.4 V D0374595
2010-050A    KC2011 06 27.96956 20 17 10.46 -18 06 40.6          18.4 V D0374595
2010-050A    KC2011 06 28.02980 20 17 22.80 -18 03 24.5          17.8 R D0374204
2010-050A    KC2011 06 28.03368 20 17 23.23 -18 03 11.9                 D0374204
2010-050A    KC2011 06 28.03755 20 17 23.63 -18 02 58.3                 D0374204
2010-050A    |C2011 06 28.14263 20 19 07.11 -17 30 58.2          18.6 V D0374807
2010-050A    |C2011 06 28.14634 20 19 07.69 -17 30 50.7          18.8 V D0374807
2010-050A    |C2011 06 28.14979 20 19 08.23 -17 30 43.7          18.8 V D0374807
2010-050A    |C2011 06 28.15321 20 19 08.75 -17 30 36.4          18.5 V D0374807
2010-050A     C2011 06 28.33474720 19 47.90 -17 43 45.5          18.5 R D0374H36
2010-050A     C2011 06 28.33623620 19 47.97 -17 43 40.1          18.2 R D0374H36
2010-050A     C2011 06 28.33924920 19 48.11 -17 43 29.7          18.7 R D0374H36
2010-050A    `C2011 06 28.60631 20 22 30.74 -17 03 12.4          18.6 R D0375D90
2010-050A    `C2011 06 28.60920 20 22 31.00 -17 03 04.9          18.2 R D0375D90
2010-050A    `C2011 06 28.61317 20 22 31.23 -17 02 54.4          18.7 R D0375D90
2010-050A    `C2011 06 28.61709 20 22 31.51 -17 02 44.3                 D0375D90
2010-050A     C2011 06 28.71541 20 22 42.54 -17 20 18.5          18.2 R D0374300
2010-050A     C2011 06 28.71707 20 22 42.53 -17 20 11.9          18.4 R D0374300
2010-050A     C2011 06 28.71872 20 22 42.58 -17 20 06.5          18.9 R D0374300
2010-050A     C2011 06 28.72038 20 22 42.59 -17 20 00.5          19.0 R D0374300
2010-050A     C2011 06 28.72204 20 22 42.64 -17 19 54.7          18.9 R D0374300
2010-050A     C2011 06 28.72369 20 22 42.67 -17 19 48.0          18.7 R D0374300
2010-050A     C2011 06 28.72536 20 22 42.67 -17 19 42.0          18.3 R D0374300
2010-050A     C2011 07 28.48235 22 09 59.391-01 25 45.25         20.3 w D0377F51
2010-050A     C2011 07 28.51079 22 09 52.513-01 25 23.07         20.1 w D0377F51
2010-050A     C2011 07 28.52506 22 09 49.046-01 25 11.80         20.1 w D0377F51
2010-050A     C2011 07 31.57083 22 13 09.546-00 50 13.38         20.2 r D0377F51
2010-050A     C2011 07 31.57382 22 13 08.863-00 50 11.51         19.8 r D0377F51
2010-050A     C2011 07 31.57530 22 13 08.569-00 50 10.66         20.0 r D0377F51
2010-050A     C2011 07 31.57678 22 13 08.325-00 50 09.44         21.1 r D0377F51
2010-050A    KC2011 08 01.27947622 14 22.14 -00 47 11.4          19.1 V D0377H21
2010-050A    KC2011 08 01.28542222 14 20.96 -00 47 08.1          19.1 V D0377H21
2010-050A    KC2011 08 01.29029122 14 19.98 -00 47 05.5          19.1 V D0377H21
2010-050A    %C2011 08 01.49194 22 14 29.13 -00 41 28.8          19.4 R D0377F65
2010-050A    %C2011 08 01.49299 22 14 28.86 -00 41 28.1          19.6 R D0377F65
2010-050A    %C2011 08 01.49411 22 14 28.58 -00 41 27.6          19.6 R D0377F65
2010-050A    %C2011 08 01.49516 22 14 28.31 -00 41 27.1          19.6 R D0377F65
2010-050A    %C2011 08 01.49625 22 14 28.04 -00 41 26.4          19.7 R D0377F65
2010-050A    %C2011 08 01.49731 22 14 27.76 -00 41 25.8          19.9 R D0377F65
2010-050A    %C2011 08 01.49843 22 14 27.46 -00 41 25.2          19.6 R D0377F65
2010-050A    %C2011 08 01.49948 22 14 27.19 -00 41 24.6          19.5 R D0377F65
2010-050A    %C2011 08 01.50061 22 14 26.89 -00 41 24.0          19.2 R D0377F65
2010-050A     C2011 08 06.55910 22 18 20.996-00 05 35.68         21.3 g D0378F51
2010-050A     C2011 08 06.56059 22 18 20.572-00 05 35.04         21.6 g D0378F51
2010-050A     C2011 08 06.56207 22 18 20.285-00 05 34.64         22.3 g D0378F51
2010-050A     C2011 08 06.56503 22 18 19.533-00 05 33.56         21.6 g D0378F51
2010-050A     C2011 08 06.56651 22 18 19.174-00 05 33.10         21.4 g D0378F51
2010-050A     C2011 08 06.56948 22 18 18.526-00 05 32.15         21.2 g D0378F51
2010-050A     C2011 08 06.57299 22 18 17.774-00 05 31.08         20.0 r D0378F51
2010-050A     C2011 08 06.57448 22 18 17.428-00 05 30.58         20.1 r D0378F51
2010-050A     C2011 08 06.57744 22 18 16.719-00 05 29.53         19.9 r D0378F51
2010-050A     C2011 08 06.57893 22 18 16.449-00 05 29.18         19.9 r D0378F51
2010-050A     C2011 08 06.58042 22 18 16.094-00 05 28.64         20.2 r D0378F51
2010-050A     C2011 08 06.58191 22 18 15.674-00 05 27.90         20.5 r D0378F51
2010-050A     C2011 08 24.86792 22 27 12.94 -00 17 52.1          18.3 V D0378A50
2010-050A     C2011 08 24.86838 22 27 12.78 -00 17 53.2         x18.1 V D0378A50
2010-050A     C2011 08 24.86884 22 27 12.71 -00 17 53.1          17.5 V D0378A50
2010-050A     C2011 08 24.89157 22 27 08.33 -00 18 01.5          18.0 V D0378A50
2010-050A     C2011 08 24.89204 22 27 08.22 -00 18 00.6          18.2 V D0378A50
2010-050A     C2011 08 24.89221 22 27 08.16 -00 18 01.8          18.3 V D0378A50
2010-050A     C2011 08 24.89249 22 27 08.13 -00 18 01.3          18.0 V D0378A50
2010-050A     C2011 08 24.89295 22 27 08.05 -00 18 01.4          18.1 V D0378A50
2010-050A     C2011 08 24.91567 22 27 03.56 -00 18 09.9          19.0 V D0378A50
2010-050A     C2011 08 24.91613 22 27 03.46 -00 18 10.6          18.8 V D0378A50
2010-050A     C2011 08 24.91659 22 27 03.38 -00 18 10.6          18.5 V D0378A50

Station data:
(204) Schiaparelli Observatory (N45.8680 E8.7708).   Observer L. Buzzi.
    0.60-m f/4.64 reflector + CCD.
(300) Bisei Spaceguard Center-BATTeRS (N34.67201 E133.54444).  0.25-m f/5.0
    reflector.
(595) Farra d'Isonzo (N45.91578 E13.52578).   Observers L. Bittesini, G.
    Lombardi, E. Pettarin, F. Piani, F. Fabris.  Measurers G. Lombardi, E.
    Pettarin, L. Bittesini.  0.40-m f/4.5 reflector + CCD.
(807) Cerro Tololo Observatory, La Serena (S30.1692 W70.8059).   Observers M.
    Holman, J. Kavelaars, T. Grav, W. Fraser.  Measurer M. Holman.  4-m Blanco
    reflector + CCD.
(A50) Andrushivka Astronomical Observatory (N50.0006 E28.9973).  0.6-m
    reflector.
(D90) RAS Observatory, Moorook (S34.2694 E140.3420).
(D96) Tzec Maun Observatory, Moorook (S34.26891 E140.34216).
(F51) Pan-STARRS 1, Haleakala (N20.70720 W156.25591).   Observers N. Primak,
    A. Schultz, S. Watters, J. Thiel, T. Goggia.  Measurer P. 1 Science
    Consortium.  1.8-m Ritchey-Chretien + CCD.
(F65) Haleakala-Faulkes Telescope North (N20.7072 W156.2576).
(G96) Mt. Lemmon Survey (N32.44287 W110.78872).   Observers E. J. Christensen,
    A. R. Gibbs, R. A. Kowalski.  Measurers E. C. Beshore, E. J. Christensen,
    G. J. Garradd, A. R. Gibbs, A. D. Grauer, R. E. Hill, R. A. Kowalski, S. M.
    Larson, R. H. McNaught, R. H., J. D. Ahern, A. Boattini.  1.5-m reflector +
    CCD.
(H06) RAS Observatory, Mayhill (N32.90346 W105.52866).   Observers E. Guido,
    G. Sostero.  0.25-m f/3.4 reflector + CCD.
(H21) Astronomical Research Observatory, Westfield (N39.48311 W87.96827).
(H36) Sandlot Observatory, Scranton (N38.7977 W95.7064).   Observer G. Hug.
    0.56-m reflector + CCD.

Orbital elements:
2010-050A = SM999CF = Chang'e 2 probe
   Perilune 2011 Jun 9.342324 TT =  8:12:56 (JD 2455721.842324)
Epoch 2011 Jun  9.38 TT; AMR 0.025416 m2/kg            Find_Orb
q  1554.832238km    (2000.0)            P               Q
H   28.3  G 0.15   Peri.  152.052535     0.193808310    -0.123008395
                   Node   256.770313     0.604384295    -0.766507797
e   1.00173449     Incl.   91.049630     0.772759963     0.630344929
From 77 observations 2011 June 27-Aug. 24; mean residual 0".389.
LAUNCH at   9 Jun 2011  8:19:11.12 lat  -9.66448 lon  82.35981

Residuals in arcseconds:
110627 G96  .12+  .35+    110628 D90  .30+  .14+    110801 F65  .18-  .06+
110627 G96  .31+  .21+    110628 D90  .41-  .42+    110801 F65  .15-  .08+
110627 G96  .14-  .39+    110628 D90  .04-  .27+    110801 F65  .26-  .07+
